,,PA_Meas_PMT16A,,PR_Meas_QMR101_102,,RH_Meas_QMH101,,SR_Meas_QMS101,,TA_Meas_QMH101,,GenWind,,GenWind,
time,status,PA,status,PR,status,RH,status,SR,status,TA,status,DirAvg,status,SpdAvg,
2015-11-29, 07:15:04,INVALID - VALUE NOT AVAILABLE,0,INVALID - VALUE NOT AVAILABLE,0,INVALID - VALUE NOT AVAILABLE,0,INVALID - VALUE NOT AVAILABLE,0,INVALID - VALUE NOT AVAILABLE,0,INVALID,360,INVALID,0,
2015-11-29, 07:21:04,VALID,919.63,VALID,0,VALID,101.208,VALID,93.9036,VALID,20.1724,VALID,183,VALID,0,
2015-11-29, 07:22:04,VALID,919.631,VALID,0,VALID,101.208,VALID,98.2012,VALID,20.2309,VALID,183,VALID,0,
2015-11-29, 07:23:04,VALID,919.654,VALID,0,VALID,101.186,VALID,102.391,VALID,20.1903,VALID,183,VALID,0,
2015-11-29, 07:24:04,VALID,919.663,VALID,0,VALID,101.201,VALID,105.507,VALID,20.2098,VALID,183,VALID,0,
2015-11-29, 07:25:04,VALID,919.686,VALID,0,VALID,101.201,VALID,109.268,VALID,20.2699,VALID,183,VALID,0,
2015-11-29, 07:26:04,VALID,919.701,VALID,0,VALID,101.216,VALID,111.416,VALID,20.1724,VALID,165,VALID,0,
2015-11-29, 07:27:04,VALID,919.665,VALID,0,VALID,101.216,VALID,112.813,VALID,20.1513,VALID,165,VALID,0,
2015-11-29, 07:28:04,VALID,919.709,VALID,0,VALID,101.224,VALID,112.276,VALID,20.1513,VALID,169,VALID,0,
2015-11-29, 07:29:04,VALID,919.726,VALID,0,VALID,101.224,VALID,110.879,VALID,20.1513,VALID,169,VALID,0,
2015-11-29, 07:30:04,VALID,919.73,VALID,0,VALID,101.239,VALID,109.268,VALID,20.1529,VALID,169,VALID,0,
2015-11-29, 07:31:04,VALID,919.709,VALID,0,VALID,101.216,VALID,108.193,VALID,20.1903,VALID,169,VALID,0,
2015-11-29, 07:32:04,VALID,919.746,VALID,0,VALID,101.224,VALID,107.549,VALID,20.1318,VALID,164,VALID,0,
2015-11-29, 07:33:04,VALID,919.77,VALID,0,VALID,101.247,VALID,106.797,VALID,20.1513,VALID,153,VALID,0,
2015-11-29, 07:34:04,VALID,919.775,VALID,0,VALID,101.231,VALID,102.714,VALID,20.1318,VALID,153,VALID,0,
2015-11-29, 07:35:04,VALID,919.743,VALID,0,VALID,101.247,VALID,100.78,VALID,20.1318,VALID,153,VALID,0,
2015-11-29, 07:36:04,VALID,919.73,VALID,0,VALID,101.239,VALID,99.5979,VALID,20.1123,VALID,153,VALID,0,
2015-11-29, 07:37:04,VALID,919.729,VALID,0,VALID,101.254,VALID,97.8789,VALID,20.1334,VALID,153,VALID,0,
2015-11-29, 07:38:04,VALID,919.746,VALID,0,VALID,101.239,VALID,96.0524,VALID,20.1123,VALID,153,VALID,0,
2015-11-29, 07:39:04,VALID,919.759,VALID,0,VALID,101.247,VALID,95.0854,VALID,20.1513,VALID,153,VALID,0,
2015-11-29, 07:40:04,VALID,919.767,VALID,0,VALID,101.224,VALID,94.6557,VALID,20.2098,VALID,153,VALID,0,
2015-11-29, 07:41:04,VALID,919.758,VALID,0,VALID,101.231,VALID,93.7961,VALID,20.2098,VALID,153,VALID,0,
2015-11-29, 07:42:04,VALID,919.785,VALID,0,VALID,101.224,VALID,94.011,VALID,20.2489,VALID,153,VALID,0,
2015-11-29, 07:43:04,VALID,919.792,VALID,0,VALID,101.208,VALID,95.3003,VALID,20.2684,VALID,153,VALID,0,
2015-11-29, 07:44:04,VALID,919.823,VALID,0,VALID,101.231,VALID,96.1598,VALID,20.2098,VALID,153,VALID,0,
2015-11-29, 07:45:04,VALID,919.826,VALID,0,VALID,101.254,VALID,96.5896,VALID,20.2098,VALID,153,VALID,0,
2015-11-29, 07:46:04,VALID,919.822,VALID,0,VALID,101.231,VALID,96.4822,VALID,20.2098,VALID,153,VALID,0,
2015-11-29, 07:47:04,VALID,919.856,VALID,0,VALID,101.239,VALID,97.0194,VALID,20.2293,VALID,153,VALID,0,
2015-11-29, 07:48:04,VALID,919.848,VALID,0,VALID,101.231,VALID,98.4161,VALID,20.2489,VALID,153,VALID,0,
2015-11-29, 07:49:04,VALID,919.88,VALID,0,VALID,101.216,VALID,100.672,VALID,20.3074,VALID,153,VALID,0,
2015-11-29, 07:50:04,VALID,919.873,VALID,0,VALID,101.201,VALID,102.821,VALID,20.3659,VALID,165,VALID,0,
2015-11-29, 07:51:04,VALID,919.857,VALID,0,VALID,101.208,VALID,104.755,VALID,20.3854,VALID,165,VALID,0,
2015-11-29, 07:52:04,VALID,919.805,VALID,0,VALID,101.193,VALID,106.259,VALID,20.4244,VALID,165,VALID,0,
2015-11-29, 07:53:04,VALID,919.83,VALID,0,VALID,101.208,VALID,107.334,VALID,20.4049,VALID,165,VALID,0,
2015-11-29, 07:54:04,VALID,919.819,VALID,0,VALID,101.186,VALID,107.978,VALID,20.4049,VALID,165,VALID,0,
2015-11-29, 07:55:04,VALID,919.847,VALID,0,VALID,101.163,VALID,109.053,VALID,20.4439,VALID,165,VALID,0,
2015-11-29, 07:56:04,VALID,919.889,VALID,0,VALID,101.193,VALID,110.879,VALID,20.4439,VALID,165,VALID,0,
2015-11-29, 07:57:04,VALID,919.903,VALID,0,VALID,101.186,VALID,112.706,VALID,20.4634,VALID,165,VALID,0,
2015-11-29, 07:58:04,VALID,919.914,VALID,0,VALID,101.178,VALID,113.995,VALID,20.4829,VALID,165,VALID,0,
2015-11-29, 07:59:04,VALID,919.939,VALID,0,VALID,101.186,VALID,115.607,VALID,20.5204,VALID,165,VALID,0,
2015-11-29, 08:00:04,VALID,919.931,VALID,0,VALID,101.155,VALID,117.218,VALID,20.5804,VALID,165,VALID,0,
2015-11-29, 08:01:04,VALID,919.969,VALID,0,VALID,101.163,VALID,118.722,VALID,20.639,VALID,165,VALID,0,
2015-11-29, 08:02:04,VALID,919.954,VALID,0,VALID,101.163,VALID,120.227,VALID,20.5789,VALID,165,VALID,0,
2015-11-29, 08:03:04,VALID,919.96,VALID,0,VALID,101.147,VALID,120.979,VALID,20.6179,VALID,165,VALID,0,
2015-11-29, 08:04:04,VALID,919.968,VALID,0,VALID,101.147,VALID,120.227,VALID,20.6975,VALID,143,VALID,0,
2015-11-29, 08:05:04,VALID,919.999,VALID,0,VALID,101.14,VALID,118.83,VALID,20.639,VALID,143,VALID,0,
2015-11-29, 08:06:04,VALID,919.98,VALID,0,VALID,101.186,VALID,117.326,VALID,20.5804,VALID,87,VALID,0,
2015-11-29, 08:07:04,VALID,920.004,VALID,0,VALID,101.201,VALID,116.896,VALID,20.5414,VALID,87,VALID,0,
2015-11-29, 08:08:04,VALID,920,VALID,0,VALID,101.216,VALID,116.466,VALID,20.4813,VALID,87,VALID,0,
2015-11-29, 08:09:04,VALID,919.991,VALID,0,VALID,101.231,VALID,116.789,VALID,20.5219,VALID,87,VALID,0,
2015-11-29, 08:10:04,VALID,919.99,VALID,0,VALID,101.231,VALID,117.541,VALID,20.4813,VALID,94,VALID,0,
2015-11-29, 08:11:04,VALID,919.985,VALID,0,VALID,101.231,VALID,118.615,VALID,20.4829,VALID,103,VALID,0,
2015-11-29, 08:12:04,VALID,919.994,VALID,0,VALID,101.239,VALID,118.937,VALID,20.4618,VALID,103,VALID,0,
2015-11-29, 08:13:04,VALID,920.011,VALID,0,VALID,101.224,VALID,118.508,VALID,20.4618,VALID,103,VALID,0,
2015-11-29, 08:14:04,VALID,920,VALID,0,VALID,101.216,VALID,119.904,VALID,20.5219,VALID,103,VALID,0,
2015-11-29, 08:15:04,VALID,920.018,VALID,0,VALID,101.247,VALID,123.128,VALID,20.4423,VALID,102,VALID,0,
2015-11-29, 08:16:04,VALID,920.029,VALID,0,VALID,101.224,VALID,126.888,VALID,20.4618,VALID,98,VALID,0,
2015-11-29, 08:17:04,VALID,920.044,VALID,0,VALID,101.231,VALID,131.83,VALID,20.5399,VALID,98,VALID,0,
2015-11-29, 08:18:04,VALID,920.003,VALID,0,VALID,101.201,VALID,136.558,VALID,20.6194,VALID,98,VALID,0,
2015-11-29, 08:19:04,VALID,920.039,VALID,0,VALID,101.17,VALID,141.178,VALID,20.6374,VALID,99,VALID,0,
2015-11-29, 08:20:04,VALID,920.055,VALID,0,VALID,101.193,VALID,146.765,VALID,20.6374,VALID,98,VALID,0,
2015-11-29, 08:21:04,VALID,920.06,VALID,0,VALID,101.186,VALID,151.814,VALID,20.678,VALID,98,VALID,0,
2015-11-29, 08:22:04,VALID,920.057,VALID,0,VALID,101.163,VALID,157.186,VALID,20.7365,VALID,99,VALID,0,
2015-11-29, 08:23:04,VALID,920.058,VALID,0,VALID,101.193,VALID,163.096,VALID,20.639,VALID,98,VALID,0,
2015-11-29, 08:24:04,VALID,920.069,VALID,0,VALID,101.231,VALID,171.261,VALID,20.6194,VALID,121,VALID,0,
2015-11-29, 08:25:04,VALID,920.074,VALID,0,VALID,101.186,VALID,182.22,VALID,20.7381,VALID,124,VALID,0,
2015-11-29, 08:26:04,VALID,920.103,VALID,0,VALID,101.178,VALID,199.196,VALID,20.7755,VALID,133,VALID,0,
2015-11-29, 08:27:04,VALID,920.068,VALID,0,VALID,101.14,VALID,232.825,VALID,20.834,VALID,133,VALID,0,
2015-11-29, 08:28:04,VALID,920.104,VALID,0,VALID,101.125,VALID,220.792,VALID,20.9316,VALID,133,VALID,0,
2015-11-29, 08:29:04,VALID,920.071,VALID,0,VALID,101.14,VALID,233.147,VALID,20.9316,VALID,133,VALID,0,
2015-11-29, 08:30:04,VALID,920.08,VALID,0,VALID,101.109,VALID,246.792,VALID,21.0291,VALID,133,VALID,0,
2015-11-29, 08:31:04,VALID,920.099,VALID,0,VALID,101.094,VALID,258.181,VALID,21.047,VALID,133,VALID,0,
2015-11-29, 08:32:04,VALID,920.118,VALID,0,VALID,101.079,VALID,275.372,VALID,21.086,VALID,133,VALID,0,
2015-11-29, 08:33:04,VALID,920.124,VALID,0,VALID,101.079,VALID,318.133,VALID,21.1852,VALID,133,VALID,0,
2015-11-29, 08:34:04,VALID,920.144,VALID,0,VALID,101.041,VALID,390.978,VALID,21.2827,VALID,133,VALID,0,
2015-11-29, 08:35:04,VALID,920.156,VALID,0,VALID,101.094,VALID,329.737,VALID,21.1055,VALID,138,VALID,0,
2015-11-29, 08:36:04,VALID,920.193,VALID,0,VALID,101.109,VALID,310.827,VALID,21.1461,VALID,138,VALID,0,
2015-11-29, 08:37:04,VALID,920.213,VALID,0,VALID,101.117,VALID,310.183,VALID,21.1445,VALID,138,VALID,0,
2015-11-29, 08:38:04,VALID,920.207,VALID,0,VALID,101.155,VALID,313.836,VALID,21.0291,VALID,138,VALID,0,
2015-11-29, 08:39:04,VALID,920.208,VALID,0,VALID,101.186,VALID,303.629,VALID,21.0291,VALID,138,VALID,0,
2015-11-29, 08:40:04,VALID,920.211,VALID,0,VALID,101.125,VALID,293.314,VALID,21.125,VALID,138,VALID,0,
2015-11-29, 08:41:04,VALID,920.233,VALID,0,VALID,101.132,VALID,284.397,VALID,21.1836,VALID,138,VALID,0,
2015-11-29, 08:42:04,VALID,920.238,VALID,0,VALID,101.17,VALID,277.198,VALID,21.0665,VALID,140,VALID,0,
2015-11-29, 08:43:04,VALID,920.27,VALID,0,VALID,101.254,VALID,274.834,VALID,20.969,VALID,140,VALID,0,
2015-11-29, 08:44:04,VALID,920.287,VALID,0,VALID,101.308,VALID,268.388,VALID,20.9495,VALID,140,VALID,0,
2015-11-29, 08:45:04,VALID,920.294,VALID,0,VALID,101.285,VALID,257.644,VALID,20.969,VALID,140,VALID,0,
2015-11-29, 08:46:04,VALID,920.31,VALID,0,VALID,101.247,VALID,249.371,VALID,21.086,VALID,140,VALID,0,
2015-11-29, 08:47:04,VALID,920.306,VALID,0,VALID,101.208,VALID,241.528,VALID,21.086,VALID,140,VALID,0,
2015-11-29, 08:48:04,VALID,920.339,VALID,0,VALID,101.247,VALID,237.23,VALID,21.086,VALID,140,VALID,0,
2015-11-29, 08:49:04,VALID,920.313,VALID,0,VALID,101.254,VALID,233.147,VALID,21.1039,VALID,140,VALID,0,
2015-11-29, 08:50:04,VALID,920.314,VALID,0,VALID,101.231,VALID,230.032,VALID,21.164,VALID,140,VALID,0,
2015-11-29, 08:51:04,VALID,920.303,VALID,0,VALID,101.216,VALID,226.164,VALID,21.221,VALID,140,VALID,0,
2015-11-29, 08:52:04,VALID,920.311,VALID,0,VALID,101.254,VALID,221.973,VALID,21.2405,VALID,140,VALID,0,
2015-11-29, 08:53:04,VALID,920.302,VALID,0,VALID,101.231,VALID,219.932,VALID,21.3006,VALID,140,VALID,0,
2015-11-29, 08:54:04,VALID,920.313,VALID,0,VALID,101.216,VALID,218.428,VALID,21.3591,VALID,140,VALID,0,
2015-11-29, 08:55:04,VALID,920.34,VALID,0,VALID,101.193,VALID,216.386,VALID,21.3965,VALID,165,VALID,0,
2015-11-29, 08:56:04,VALID,920.381,VALID,0,VALID,101.201,VALID,208.973,VALID,21.377,VALID,217,VALID,0,
2015-11-29, 08:57:04,VALID,920.394,VALID,0,VALID,101.277,VALID,202.204,VALID,21.299,VALID,218,VALID,0,
2015-11-29, 08:58:04,VALID,920.386,VALID,0,VALID,101.262,VALID,204.138,VALID,21.3185,VALID,218,VALID,0,
2015-11-29, 08:59:04,VALID,920.419,VALID,0,VALID,101.254,VALID,210.692,VALID,21.377,VALID,217,VALID,0,
2015-11-29, 09:00:04,VALID,920.398,VALID,0,VALID,101.3,VALID,219.61,VALID,21.3396,VALID,218,VALID,0,
2015-11-29, 09:01:04,VALID,920.385,VALID,0,VALID,101.292,VALID,226.379,VALID,21.3201,VALID,217,VALID,0,
2015-11-29, 09:02:04,VALID,920.373,VALID,0,VALID,101.3,VALID,230.461,VALID,21.3201,VALID,217,VALID,0,
2015-11-29, 09:03:04,VALID,920.4,VALID,0,VALID,101.315,VALID,235.296,VALID,21.3201,VALID,188,VALID,0,
2015-11-29, 09:04:04,VALID,920.414,VALID,0,VALID,101.369,VALID,239.916,VALID,21.2226,VALID,194,VALID,0,
2015-11-29, 09:05:04,VALID,920.384,VALID,0,VALID,101.437,VALID,246.04,VALID,21.2031,VALID,194,VALID,0,
2015-11-29, 09:06:04,VALID,920.372,VALID,0,VALID,101.414,VALID,251.412,VALID,21.2421,VALID,194,VALID,0,
2015-11-29, 09:07:04,VALID,920.383,VALID,0,VALID,101.437,VALID,257.536,VALID,21.221,VALID,194,VALID,0,
2015-11-29, 09:08:04,VALID,920.385,VALID,0,VALID,101.445,VALID,263.446,VALID,21.3006,VALID,178,VALID,0,
2015-11-29, 09:09:04,VALID,920.357,VALID,0,VALID,101.46,VALID,270.537,VALID,21.2811,VALID,188,VALID,0,
2015-11-29, 09:10:04,VALID,920.354,VALID,0,VALID,101.475,VALID,277.521,VALID,21.3201,VALID,186,VALID,0,
2015-11-29, 09:11:04,VALID,920.375,VALID,0,VALID,101.452,VALID,283.43,VALID,21.3786,VALID,185,VALID,0,
2015-11-29, 09:12:04,VALID,920.369,VALID,0,VALID,101.46,VALID,287.083,VALID,21.416,VALID,208,VALID,0,
2015-11-29, 09:13:04,VALID,920.359,VALID,0,VALID,101.491,VALID,292.67,VALID,21.416,VALID,227,VALID,0,
2015-11-29, 09:14:04,VALID,920.372,VALID,0,VALID,101.483,VALID,282.355,VALID,21.4941,VALID,218,VALID,0,
2015-11-29, 09:15:04,VALID,920.364,VALID,0,VALID,101.46,VALID,277.735,VALID,21.6111,VALID,204,VALID,0,
2015-11-29, 09:16:04,VALID,920.389,VALID,0,VALID,101.391,VALID,273.76,VALID,21.8062,VALID,232,VALID,0,
2015-11-29, 09:17:04,VALID,920.364,VALID,0,VALID,101.323,VALID,271.396,VALID,21.9233,VALID,232,VALID,0,
2015-11-29, 09:19:04,VALID,920.4,VALID,0,VALID,101.521,VALID,264.305,VALID,21.7282,VALID,244,VALID,0,
2015-11-29, 09:20:04,VALID,920.423,VALID,0,VALID,101.475,VALID,263.768,VALID,21.8452,VALID,233,VALID,0,
2015-11-29, 09:21:04,VALID,920.402,VALID,0,VALID,101.468,VALID,264.735,VALID,21.9233,VALID,243,VALID,0,
2015-11-29, 09:22:04,VALID,920.394,VALID,0,VALID,101.468,VALID,267.528,VALID,22.0013,VALID,266,VALID,0,
2015-11-29, 09:23:04,VALID,920.378,VALID,0,VALID,101.521,VALID,273.975,VALID,21.9428,VALID,272,VALID,0,
2015-11-29, 09:24:04,VALID,920.397,VALID,0,VALID,101.582,VALID,280.959,VALID,21.9038,VALID,272,VALID,0,
2015-11-29, 09:25:04,VALID,920.373,VALID,0,VALID,101.613,VALID,287.835,VALID,21.8842,VALID,275,VALID,0,
2015-11-29, 09:26:04,VALID,920.363,VALID,0,VALID,101.582,VALID,295.571,VALID,21.9216,VALID,275,VALID,0,
2015-11-29, 09:27:04,VALID,920.369,VALID,0,VALID,101.643,VALID,303.736,VALID,21.9233,VALID,274,VALID,0,
2015-11-29, 09:28:04,VALID,920.338,VALID,0,VALID,101.666,VALID,314.695,VALID,21.9623,VALID,274,VALID,0,
2015-11-29, 09:29:04,VALID,920.345,VALID,0,VALID,101.59,VALID,331.134,VALID,22.0794,VALID,274,VALID,0,
2015-11-29, 09:30:04,VALID,920.353,VALID,0,VALID,101.544,VALID,348.754,VALID,22.2159,VALID,276,VALID,0,
2015-11-29, 09:31:04,VALID,920.339,VALID,0,VALID,101.59,VALID,352.3,VALID,22.255,VALID,335,VALID,0,
2015-11-29, 09:32:04,VALID,920.33,VALID,0,VALID,101.681,VALID,365.622,VALID,22.2159,VALID,323,VALID,0,
2015-11-29, 09:33:04,VALID,920.341,VALID,0,VALID,101.834,VALID,373.895,VALID,22.1379,VALID,291,VALID,0,
2015-11-29, 09:34:04,VALID,920.322,VALID,0,VALID,101.879,VALID,375.077,VALID,22.0387,VALID,281,VALID,0,
2015-11-29, 09:35:04,VALID,920.31,VALID,0,VALID,101.925,VALID,376.474,VALID,22.0403,VALID,252,VALID,0,
2015-11-29, 09:36:04,VALID,920.294,VALID,0,VALID,101.864,VALID,380.879,VALID,22.1362,VALID,306,VALID,0,
2015-11-29, 09:37:04,VALID,920.29,VALID,0,VALID,101.879,VALID,383.78,VALID,22.1557,VALID,248,VALID,0,
2015-11-29, 09:38:04,VALID,920.281,VALID,0,VALID,101.895,VALID,369.812,VALID,22.2142,VALID,248,VALID,0,
2015-11-29, 09:39:04,VALID,920.279,VALID,0,VALID,101.94,VALID,362.292,VALID,22.2533,VALID,263,VALID,0,
2015-11-29, 09:40:04,VALID,920.309,VALID,0,VALID,101.978,VALID,364.978,VALID,22.2728,VALID,263,VALID,0,
2015-11-29, 09:41:04,VALID,920.294,VALID,0,VALID,101.917,VALID,366.697,VALID,22.4094,VALID,254,VALID,0,
